Temp
74 78 82 83 84 83 83 83 83 83 83 83 83 83 83 83 83 83 83 83 83 83 83 83 83 84 84 84 84 83 84 83 84 84 84 83 83 83 83 83 83 82 83
77 80 82 83 84 83 82 83 83 83 83 83 83 83 83 83 84 83 83 84 83 84 83 83 84 84 84 83 83 83 82 84 84 84 84 83 83 83 84 84 83 82 83
78 81 82 82 83 83 83 83 83 83 83 83 83 84 83 83 84 84 83 84 84 84 84 83 84 84 84 84 83 84 83 83 84 84 84 79 79 84 84 83 83 83 83
79 79 80 82 83 83 83 83 83 83 83 83 83 83 84 84 84 84 84 84 84 84 84 84 84 84 84 84 84 83 82 83 84 83 77 81 83 84 83 83 83 83 82
78 77 80 83 83 83 83 83 84 83 83 83 84 83 84 84 84 84 84 83 83 84 84 84 84 84 84 84 84 83 82 83 84 82 77 75 78 83 83 83 84 83 83
76 77 82 83 83 84 84 83 84 83 84 83 84 84 84 84 84 83 83 84 83 82 82 84 84 84 84 83 83 84 84 83 82 78 75 79 78 84 83 83 84 83 83
74 77 81 83 83 84 84 84 83 84 83 83 84 84 84 84 84 84 83 84 84 84 84 84 84 84 84 84 84 84 83 83 76 75 75 76 78 83 84 83 83 83 83
76 78 81 83 84 84 84 83 83 84 84 84 84 84 84 84 84 84 83 84 84 84 84 84 83 83 84 83 84 84 84 84 79 76 75 75 80 82 82 83 83 83 82
78 78 79 79 83 84 84 84 83 84 84 84 84 84 84 84 84 84 84 84 84 84 84 84 84 83 83 84 83 84 83 83 75 75 77 76 80 83 83 83 83 82 83
75 76 74 77 79 78 81 84 84 84 84 84 84 84 84 83 82 81 81 83 85 85 84 84 83 83 83 82 84 84 84 84 78 75 76 76 81 83 83 83 83 83 82
77 73 75 76 75 75 78 81 83 84 84 84 83 83 79 74 74 77 79 81 82 84 84 84 83 83 83 81 83 84 80 73 76 73 75 79 81 84 84 83 83 82 82
74 76 75 76 77 76 83 78 76 78 78 76 77 76 73 72 72 76 77 80 82 83 83 81 81 81 81 76 77 82 73 74 74 75 74 80 82 84 84 83 83 82 82
77 79 77 77 78 79 79 76 75 75 75 76 75 73 74 74 73 73 72 73 73 78 73 76 74 74 76 74 76 75 74 74 73 75 78 80 82 84 84 83 82 82 82
77 78 79 79 77 78 78 78 78 78 76 75 74 73 73 73 73 73 73 73 73 72 72 71 71 72 73 73 75 75 75 74 72 72 75 81 81 83 83 83 82 82 82
76 80 78 79 78 79 78 79 79 80 78 77 75 74 74 73 73 73 72 72 73 72 72 71 71 71 72 74 75 75 77 76 74 73 73 82 81 82 83 83 83 82 82
78 82 79 79 79 79 77 78 77 77 77 76 74 74 74 73 73 72 72 72 72 72 72 71 70 70 72 74 75 77 77 78 74 73 74 76 81 81 82 83 83 83 82
76 80 78 78 80 78 78 78 78 77 78 78 74 75 75 74 73 72 72 71 72 73 72 72 71 71 72 74 74 76 76 79 74 72 74 73 77 81 81 81 82 82 82
79 79 78 85 80 78 77 78 78 77 76 77 75 73 75 76 75 73 73 73 74 73 73 72 72 71 71 72 72 74 75 75 77 75 75 73 74 76 79 81 81 82 82
80 80 77 79 79 79 78 77 78 79 77 75 74 74 76 77 77 74 73 73 74 73 73 73 72 72 71 71 73 75 75 76 78 78 75 73 71 72 72 78 80 80 82
82 81 79 79 79 79 77 76 76 76 77 75 73 73 74 75 77 75 74 74 74 72 72 72 72 72 71 72 76 75 73 75 77 76 74 74 71 73 72 72 74 76 81
82 79 78 77 77 76 75 74 74 75 75 75 74 78 76 76 77 76 75 74 74 73 73 73 71 72 71 72 71 72 73 74 73 73 73 73 73 73 71 71 72 72 76
81 81 77 78 77 80 76 76 79 81 78 77 75 76 76 77 79 77 75 74 74 73 73 73 73 71 72 73 70 68 66 68 69 71 71 72 72 73 73 73 72 72 74
81 80 79 77 78 79 77 77 77 77 76 75 75 75 77 79 78 79 77 74 74 73 72 73 73 72 71 72 72 70 64 63 64 68 70 70 72 71 74 74 73 73 73
82 83 79 77 77 78 77 76 77 75 73 74 75 74 75 80 78 79 78 76 75 74 73 73 75 73 72 70 71 73 69 66 63 62 67 68 70 72 72 73 74 74 73
84 82 82 79 77 78 76 77 76 74 75 74 72 73 72 75 77 79 78 77 75 74 75 74 75 73 73 71 71 71 67 69 65 64 62 65 67 68 70 72 74 74 75
84 84 82 80 79 78 77 76 77 75 74 73 72 72 71 72 72 75 78 77 77 75 75 76 76 74 74 73 73 72 70 66 66 66 65 65 64 66 69 69 72 72 72
MSLP
1016.65 1016.31 1016.30 1016.35 1016.53 1016.61 1016.66 1016.64 1016.55 1016.53 1016.29 1016.50 1016.42 1016.51 1016.70 1016.82 1016.84 1016.86 1016.87 1016.93 1017.12 1017.32 1017.46 1017.61 1017.47 1017.33 1017.41 1017.32 1017.51 1017.69 1017.75 1017.97 1018.05 1018.19 1018.30 1018.51 1018.70 1018.79 1018.86 1019.09 1019.20 1019.27 1019.27
1016.18 1016.27 1016.37 1016.47 1016.58 1016.84 1016.85 1016.81 1016.78 1016.76 1016.69 1016.87 1016.85 1016.86 1017.00 1017.15 1017.21 1017.20 1017.04 1017.17 1017.31 1017.42 1017.70 1017.77 1017.71 1017.60 1017.65 1017.77 1017.85 1017.94 1018.01 1018.22 1018.28 1018.48 1018.63 1018.88 1018.99 1018.99 1019.06 1019.22 1019.45 1019.58 1019.61
1016.13 1016.24 1016.42 1016.47 1016.63 1016.86 1016.89 1016.95 1016.99 1016.99 1017.00 1017.12 1017.10 1017.12 1017.30 1017.41 1017.48 1017.50 1017.60 1017.53 1017.52 1017.56 1017.66 1017.89 1018.01 1017.90 1017.89 1017.92 1018.18 1018.28 1018.41 1018.44 1018.58 1018.68 1018.91 1019.12 1019.28 1019.20 1019.29 1019.51 1019.83 1019.82 1019.82
1016.02 1016.22 1016.42 1016.54 1016.55 1016.85 1017.01 1017.09 1017.11 1017.23 1017.22 1017.24 1017.30 1017.38 1017.46 1017.60 1017.63 1017.71 1017.74 1017.88 1017.85 1017.88 1017.70 1017.86 1018.13 1018.21 1018.18 1018.20 1018.28 1018.44 1018.58 1018.69 1018.78 1019.03 1019.19 1019.22 1019.29 1019.43 1019.59 1019.76 1019.88 1020.00 1020.29
1016.31 1016.25 1016.44 1016.59 1016.67 1016.85 1017.08 1017.27 1017.37 1017.46 1017.33 1017.40 1017.52 1017.60 1017.63 1017.81 1017.92 1017.93 1018.00 1018.07 1017.98 1017.96 1017.99 1018.00 1018.23 1018.28 1018.40 1018.48 1018.51 1018.59 1018.81 1018.99 1018.87 1019.07 1019.33 1019.44 1019.51 1019.58 1019.86 1020.08 1020.18 1020.35 1020.58
1016.49 1016.60 1016.55 1016.65 1016.86 1017.04 1017.15 1017.43 1017.64 1017.58 1017.52 1017.66 1017.59 1017.83 1017.94 1018.03 1018.14 1018.16 1018.01 1018.09 1018.28 1018.17 1018.25 1018.36 1018.40 1018.48 1018.53 1018.58 1018.65 1018.72 1018.74 1018.94 1019.00 1019.20 1019.54 1019.56 1019.73 1019.79 1020.03 1020.29 1020.44 1020.56 1020.74
1016.88 1016.86 1016.91 1016.90 1016.99 1017.25 1017.47 1017.63 1017.71 1017.69 1017.76 1017.92 1018.00 1018.18 1018.25 1018.19 1018.30 1018.37 1018.50 1018.29 1018.31 1018.43 1018.47 1018.53 1018.60 1018.66 1018.75 1018.79 1018.79 1018.81 1018.78 1018.91 1019.02 1019.31 1019.73 1019.86 1019.98 1020.06 1020.17 1020.28 1020.47 1020.69 1020.88
1016.86 1017.07 1017.06 1017.02 1017.07 1017.36 1017.55 1017.81 1017.73 1017.80 1017.79 1018.01 1018.19 1018.11 1018.06 1018.04 1018.18 1018.51 1018.64 1018.56 1018.57 1018.46 1018.62 1018.69 1018.71 1018.80 1018.86 1018.80 1018.84 1018.92 1018.89 1019.00 1019.22 1019.43 1019.78 1020.05 1020.20 1020.40 1020.44 1020.43 1020.56 1020.79 1021.07
1016.79 1017.07 1017.16 1017.18 1017.21 1017.40 1017.55 1017.83 1017.77 1017.74 1017.86 1017.96 1018.12 1018.22 1018.26 1018.29 1018.29 1018.28 1018.61 1018.57 1018.62 1018.60 1018.66 1018.85 1018.86 1018.91 1018.93 1018.94 1018.98 1019.00 1019.00 1019.20 1019.48 1019.60 1019.83 1020.05 1020.21 1020.40 1020.64 1020.78 1020.84 1020.95 1021.03
1017.16 1017.25 1017.43 1017.20 1017.28 1017.58 1017.52 1017.72 1017.66 1017.68 1017.81 1017.79 1018.02 1018.10 1018.06 1018.17 1018.41 1018.63 1018.61 1018.57 1018.52 1018.64 1018.67 1018.87 1018.92 1018.94 1019.00 1019.10 1019.05 1019.02 1019.02 1019.13 1019.52 1019.76 1019.90 1020.13 1020.13 1020.35 1020.63 1020.83 1020.95 1021.01 1021.16
1017.44 1017.58 1017.49 1017.35 1017.39 1017.44 1017.47 1017.60 1017.44 1017.66 1017.75 1017.85 1017.94 1018.00 1018.31 1018.33 1018.70 1018.83 1018.93 1018.87 1018.84 1018.67 1018.67 1018.82 1018.91 1018.94 1019.07 1019.30 1019.18 1019.05 1019.22 1019.38 1019.63 1019.89 1020.02 1020.07 1020.15 1020.24 1020.50 1020.78 1020.92 1021.07 1021.19
1017.38 1017.57 1017.38 1017.21 1017.36 1017.50 1017.39 1017.58 1017.77 1017.92 1017.79 1017.93 1017.85 1017.98 1018.24 1018.52 1018.75 1018.73 1018.86 1018.97 1018.90 1018.83 1018.74 1018.97 1019.09 1019.05 1019.17 1019.54 1019.56 1019.25 1019.54 1019.67 1019.85 1019.99 1020.04 1020.11 1020.21 1020.22 1020.44 1020.74 1021.01 1021.16 1021.25
1016.79 1017.10 1017.29 1017.25 1017.30 1017.38 1017.39 1017.63 1017.87 1017.95 1017.81 1017.58 1017.89 1018.01 1018.06 1018.57 1018.57 1018.66 1018.82 1019.04 1019.06 1019.02 1019.11 1019.27 1019.46 1019.42 1019.35 1019.50 1019.65 1019.70 1019.66 1019.72 1019.95 1020.04 1020.04 1020.04 1020.17 1020.22 1020.49 1020.73 1021.04 1021.28 1021.32
1016.59 1016.71 1016.93 1017.09 1017.32 1017.30 1017.47 1017.56 1017.56 1017.53 1017.36 1017.26 1017.93 1018.31 1018.25 1018.38 1018.45 1018.55 1018.67 1018.73 1018.99 1019.13 1019.25 1019.52 1019.61 1019.60 1019.59 1019.63 1019.51 1019.69 1019.88 1019.84 1019.89 1019.99 1020.12 1020.20 1020.27 1020.29 1020.50 1020.80 1021.03 1021.34 1021.51
1016.40 1016.50 1016.79 1016.85 1016.95 1017.04 1017.17 1017.11 1017.04 1016.99 1017.18 1017.06 1017.40 1017.70 1017.86 1018.06 1017.93 1018.13 1018.40 1018.52 1018.72 1019.08 1019.17 1019.40 1019.58 1019.61 1019.51 1019.43 1019.26 1019.34 1019.49 1019.64 1019.72 1019.88 1020.14 1020.25 1020.31 1020.20 1020.25 1020.44 1020.76 1021.16 1021.39
1016.03 1016.15 1016.49 1016.73 1016.73 1016.85 1016.81 1016.63 1016.79 1016.74 1016.79 1016.87 1017.54 1017.43 1017.60 1017.79 1017.88 1018.02 1018.18 1018.37 1018.54 1018.91 1019.12 1019.37 1019.56 1019.59 1019.40 1019.14 1019.03 1019.14 1019.19 1019.30 1019.60 1019.88 1020.03 1020.14 1020.28 1020.25 1020.12 1020.20 1020.42 1020.70 1021.00
1015.71 1015.91 1016.30 1016.49 1016.45 1016.77 1016.69 1016.40 1016.61 1016.78 1016.86 1016.74 1017.30 1017.50 1017.61 1017.58 1017.79 1017.91 1018.22 1018.28 1018.46 1018.73 1018.96 1019.17 1019.59 1019.58 1019.43 1019.02 1018.95 1018.88 1019.08 1019.09 1019.49 1019.68 1019.88 1020.19 1020.17 1020.25 1020.20 1020.15 1020.16 1020.45 1020.66
1015.31 1015.70 1016.12 1016.29 1016.37 1016.52 1016.50 1016.18 1016.28 1016.59 1016.61 1016.63 1016.75 1017.03 1017.13 1017.21 1017.07 1017.74 1018.22 1018.13 1018.35 1018.76 1018.81 1019.08 1019.57 1019.72 1019.52 1019.28 1019.01 1018.82 1018.89 1019.08 1019.01 1019.36 1019.55 1019.83 1020.01 1020.03 1020.03 1019.95 1019.97 1020.23 1020.52
1014.90 1015.40 1015.92 1016.20 1016.06 1016.25 1016.27 1016.33 1016.27 1016.38 1016.45 1016.64 1016.65 1016.53 1016.53 1016.66 1016.82 1017.34 1017.66 1017.63 1017.87 1018.50 1018.79 1019.08 1019.37 1019.59 1019.59 1019.30 1019.25 1019.02 1019.00 1018.95 1018.77 1018.93 1019.19 1019.61 1019.82 1019.86 1019.93 1019.72 1019.80 1019.99 1020.26
1014.44 1014.93 1015.52 1015.89 1015.68 1015.97 1016.26 1016.50 1016.37 1016.57 1016.57 1016.75 1016.48 1016.32 1016.40 1016.56 1016.64 1016.95 1017.10 1017.38 1017.58 1018.26 1018.75 1019.09 1019.30 1019.36 1019.56 1019.45 1019.31 1019.08 1018.86 1018.78 1018.55 1018.53 1018.82 1019.10 1019.54 1019.55 1019.69 1019.87 1019.79 1019.83 1019.99
1014.40 1014.96 1015.40 1015.61 1015.36 1015.86 1016.33 1016.74 1016.85 1016.70 1016.51 1016.63 1016.41 1016.14 1016.19 1016.52 1016.63 1016.93 1016.83 1017.16 1017.34 1017.83 1018.37 1018.73 1019.01 1019.26 1019.39 1019.23 1019.43 1019.16 1018.95 1018.81 1018.98 1018.91 1018.75 1018.77 1018.93 1019.27 1019.57 1019.56 1019.73 1019.89 1019.84
1013.96 1014.47 1015.06 1015.03 1015.07 1015.50 1015.93 1016.12 1016.12 1015.99 1016.11 1015.99 1015.98 1015.93 1016.02 1016.11 1016.05 1016.29 1016.51 1016.95 1017.26 1017.59 1018.00 1018.35 1018.44 1019.03 1019.16 1018.80 1019.23 1019.53 1019.47 1019.41 1019.16 1018.46 1018.59 1018.50 1018.50 1018.59 1018.84 1019.03 1019.19 1019.31 1019.30
1013.75 1014.08 1014.51 1014.72 1014.62 1015.00 1015.48 1015.73 1015.75 1015.92 1016.06 1016.20 1016.24 1016.18 1015.92 1015.69 1015.82 1015.91 1016.22 1016.58 1016.95 1017.15 1017.62 1017.90 1018.01 1018.65 1018.86 1018.52 1018.67 1019.19 1019.68 1019.98 1019.74 1018.75 1018.81 1018.45 1018.37 1018.49 1018.36 1018.48 1018.58 1018.77 1019.06
1013.08 1013.57 1013.99 1014.37 1014.60 1014.77 1014.98 1015.21 1015.43 1015.67 1016.25 1016.17 1015.87 1015.84 1015.60 1015.15 1015.55 1015.88 1015.95 1016.33 1016.58 1016.79 1017.25 1017.48 1017.55 1017.92 1018.18 1018.44 1018.48 1018.73 1019.40 1019.72 1019.86 1019.60 1018.73 1018.51 1018.21 1018.20 1018.22 1018.04 1018.23 1018.35 1018.51
1012.67 1012.95 1013.32 1013.80 1014.25 1014.54 1014.92 1014.95 1015.20 1015.62 1015.85 1015.80 1015.89 1015.72 1015.77 1015.41 1015.61 1015.74 1016.06 1016.20 1016.53 1016.72 1016.81 1017.23 1017.32 1017.52 1017.61 1017.99 1018.24 1018.40 1019.23 1019.04 1019.58 1019.60 1019.37 1018.46 1017.98 1017.72 1017.58 1017.69 1017.57 1017.60 1017.72
1012.39 1012.72 1013.04 1013.53 1013.89 1014.07 1014.57 1014.81 1014.88 1015.12 1015.57 1015.76 1015.98 1016.09 1015.90 1015.74 1015.74 1015.82 1015.69 1015.92 1016.09 1016.28 1016.45 1016.65 1016.95 1017.13 1017.32 1017.42 1017.61 1017.88 1018.34 1018.92 1019.13 1019.15 1019.05 1018.65 1018.52 1017.84 1017.38 1017.21 1017.18 1017.21 1017.38
Wind_Speed
4 5 12 11 12 12 10 11 12 11 13 12 13 15 13 12 13 14 14 13 13 13 13 10 11 14 13 14 16 16 19 19 18 19 20 19 20 18 18 18 16 13 18
6 6 11 11 13 12 10 10 11 12 12 12 12 13 11 11 11 11 13 13 12 13 11 11 11 12 14 13 15 16 18 18 17 18 17 17 18 19 18 18 16 14 17
8 8 11 14 14 13 11 10 12 13 14 12 11 13 12 11 10 11 12 11 12 12 11 11 10 11 12 14 14 15 16 18 17 16 15 6 7 18 17 18 17 17 17
9 7 9 13 14 14 12 12 12 13 13 12 11 11 11 10 10 10 11 11 10 9 10 11 10 10 11 12 13 14 15 15 17 15 5 8 11 17 16 16 16 16 16
6 7 10 14 14 14 14 13 12 13 12 12 13 11 11 10 9 10 8 10 8 9 7 11 10 10 10 10 12 12 12 12 11 5 5 6 5 14 16 15 15 15 15
6 5 12 15 14 13 15 13 12 12 11 12 11 11 10 10 8 9 9 9 6 6 9 9 9 8 8 9 10 10 9 9 6 5 6 9 6 15 17 17 16 16 15
6 6 8 13 14 14 13 14 12 11 11 10 10 10 9 9 6 7 8 8 8 6 7 6 6 5 6 7 7 9 9 11 7 8 5 5 5 13 16 16 16 15 15
9 5 8 13 14 13 14 12 13 10 11 10 9 9 8 9 7 5 4 7 7 7 5 6 4 3 4 6 5 5 5 13 9 7 6 4 9 12 14 15 16 14 14
8 6 5 6 10 14 14 12 12 10 10 9 8 7 5 5 6 6 7 5 6 6 6 4 4 2 2 5 6 4 4 11 5 5 6 4 12 13 13 13 13 14 14
6 6 5 6 6 5 6 13 12 11 10 10 9 8 8 6 2 1 3 4 6 7 7 5 4 2 1 4 6 2 0 5 6 5 4 3 11 13 13 13 13 13 13
6 5 6 6 6 6 4 7 11 12 10 10 9 9 6 4 1 5 6 3 3 6 7 6 3 0 1 1 6 5 5 3 4 3 3 9 12 14 13 14 13 12 12
7 7 6 7 7 5 6 5 3 4 3 3 5 5 4 4 2 4 8 10 10 7 6 5 3 2 3 2 1 5 3 3 3 3 3 10 11 13 13 12 12 12 12
7 8 8 7 8 8 4 3 2 3 3 3 5 5 5 3 3 3 2 4 3 8 2 2 2 3 3 2 2 3 2 3 2 2 5 12 11 12 12 12 12 11 11
6 7 9 8 7 6 3 4 4 4 4 4 4 5 3 3 3 4 3 4 3 3 2 2 2 4 4 2 4 4 4 3 2 2 4 10 10 11 11 10 11 11 11
6 7 7 8 7 5 6 4 4 7 4 4 3 8 6 5 5 4 4 3 3 3 3 3 3 4 5 3 3 5 5 5 5 3 2 12 11 11 13 13 12 11 11
6 8 8 8 7 5 5 6 3 2 4 3 4 6 7 4 3 4 4 3 3 3 3 3 4 4 4 4 4 5 5 5 5 4 3 5 11 11 11 14 13 14 14
6 8 9 8 7 6 7 6 4 4 4 4 4 6 6 4 5 3 3 3 3 4 5 3 4 3 4 3 4 5 4 6 5 6 5 4 6 13 12 13 14 14 14
7 11 8 7 7 6 5 3 3 3 2 2 2 4 5 4 6 6 5 5 5 4 4 3 3 3 4 4 3 4 4 4 8 8 6 5 5 5 10 14 16 14 15
12 11 8 7 8 7 5 3 3 5 4 3 3 2 3 2 3 5 5 4 5 4 3 3 3 3 4 3 3 3 3 4 6 7 8 7 6 5 4 10 14 13 15
13 12 9 7 8 7 4 3 2 1 1 3 4 4 5 2 4 5 4 5 5 5 4 3 4 4 2 2 3 4 3 3 4 4 6 5 5 6 5 5 4 6 14
13 10 9 9 8 4 3 2 1 3 3 3 4 6 5 3 3 5 4 5 5 6 6 5 3 4 3 1 1 2 2 3 3 3 1 4 8 8 6 6 5 4 7
15 11 10 9 8 9 4 3 3 3 2 3 4 4 4 5 4 4 5 5 5 4 6 5 4 2 3 4 3 1 2 3 2 3 2 1 5 5 8 8 8 9 9
14 14 10 9 10 10 7 3 2 1 2 2 1 2 4 4 3 5 6 6 6 5 5 5 5 5 2 2 5 3 1 3 2 3 2 3 4 2 4 8 10 8 8
16 11 9 9 8 8 8 6 6 4 4 4 4 3 4 5 1 5 6 6 6 4 5 4 4 4 4 1 1 3 4 3 3 4 2 4 4 4 5 4 7 9 9
14 13 12 11 9 7 6 7 5 5 3 2 2 3 4 5 4 3 4 5 6 4 5 5 4 5 3 3 3 0 3 0 1 1 2 4 4 4 4 4 5 7 9
11 11 11 11 11 9 8 8 8 7 6 4 3 3 3 2 1 2 4 6 5 5 5 4 5 4 4 3 3 3 4 4 4 4 3 4 4 4 2 4 5 4 4
Wind_Direction
205 166 146 128 115 107 105 95 95 89 93 81 80 84 85 86 91 94 95 96 99 107 111 107 110 111 107 109 109 116 114 114 117 117 119 121 122 120 115 114 109 110 107
146 142 142 132 115 116 108 108 102 99 92 86 83 87 87 85 93 96 102 102 105 112 106 106 105 101 108 103 108 113 116 120 120 113 116 122 130 125 120 118 117 114 112
133 135 129 130 121 118 115 107 106 102 93 93 95 95 93 97 93 102 99 106 116 114 110 104 104 106 108 110 109 111 116 123 119 115 119 114 130 124 122 124 125 116 113
143 133 134 132 129 126 121 114 105 98 96 100 104 104 104 106 110 99 114 109 115 114 115 113 107 108 109 112 113 116 122 125 123 121 110 120 127 126 125 121 116 116 114
141 135 143 140 132 133 125 117 111 102 100 102 101 110 109 105 110 117 111 126 131 128 120 114 108 108 114 117 119 119 124 137 153 92 132 120 116 131 130 129 129 125 123
129 133 143 139 136 132 125 121 113 109 106 106 112 109 110 112 116 116 127 132 126 116 109 105 107 104 111 120 123 122 127 124 123 130 126 130 124 140 140 140 137 135 131
125 140 141 139 137 135 131 128 123 126 117 110 111 109 114 115 124 116 122 118 126 122 118 115 115 110 107 121 121 100 120 121 108 106 107 116 130 148 148 140 134 137 141
140 143 151 146 142 141 137 135 133 139 126 122 117 122 129 132 125 121 105 137 141 134 129 118 108 101 125 143 139 126 112 125 92 112 122 126 137 143 147 141 143 140 141
139 144 156 141 150 148 145 145 144 152 140 137 135 131 143 132 136 153 154 160 149 153 149 140 123 94 101 158 150 165 151 122 114 130 139 140 143 149 149 146 145 147 143
142 145 167 148 136 146 161 159 165 166 164 161 157 165 166 105 34 181 207 190 174 172 159 162 138 115 44 113 145 147 328 181 119 123 132 158 154 153 153 156 158 154 147
150 170 169 151 157 177 171 185 180 183 192 182 176 172 122 133 180 275 299 272 205 223 178 175 159 157 303 129 141 161 115 115 137 145 152 168 168 164 166 163 164 160 158
171 185 191 167 179 184 181 194 196 228 209 195 192 165 171 152 203 234 236 274 242 242 180 183 186 251 325 350 265 158 111 120 90 131 168 170 173 171 169 169 173 173 168
177 184 178 177 185 191 191 178 193 226 211 225 178 169 180 157 205 244 199 248 272 250 186 268 291 302 282 304 218 139 159 143 154 188 177 176 183 175 177 177 178 186 179
182 174 175 168 184 205 177 186 180 224 218 216 144 177 165 182 216 229 211 224 234 237 193 228 258 267 263 261 246 183 149 167 186 177 187 184 182 178 182 187 193 188 191
184 188 174 173 182 197 178 194 201 220 214 208 177 169 177 198 215 211 222 199 211 200 203 204 221 243 258 238 243 216 178 167 179 165 161 194 186 192 190 191 195 199 198
192 188 165 182 163 172 147 170 177 173 175 152 153 171 192 207 207 206 202 204 201 206 206 199 205 216 239 231 244 217 205 173 167 173 179 188 198 202 205 199 199 197 200
189 170 176 177 169 173 172 182 157 170 141 185 145 159 197 205 184 193 225 209 211 200 192 189 216 225 242 240 246 212 204 195 171 181 183 196 202 207 215 221 207 200 201
169 174 180 177 176 164 201 194 177 122 114 173 189 166 206 237 193 164 211 219 198 185 176 181 191 234 244 231 256 231 194 177 190 193 187 184 204 200 215 222 212 200 202
168 174 181 184 171 189 213 232 206 167 194 162 213 215 190 196 101 171 192 180 140 155 183 174 206 211 240 262 272 258 205 198 191 185 193 200 199 203 211 223 215 203 206
171 177 175 188 179 188 199 238 314 51 197 189 230 227 220 232 232 182 166 150 140 140 162 169 204 234 238 242 269 284 255 234 210 212 188 187 196 209 199 211 213 200 204
179 173 184 186 187 156 173 169 216 236 205 202 224 246 227 204 218 206 152 142 144 155 178 186 180 212 268 227 20 312 280 251 48 29 250 200 197 199 206 198 199 202 213
177 184 186 184 179 188 163 196 194 220 181 184 196 228 244 218 204 183 158 163 158 157 167 185 169 163 233 196 178 80 309 338 19 321 24 292 198 200 196 206 199 201 208
182 194 181 173 172 179 171 176 213 66 44 34 181 211 236 188 173 176 169 163 164 154 173 193 178 186 221 269 189 159 120 230 291 318 312 277 289 217 215 201 207 208 208
193 184 178 176 184 197 174 177 185 170 176 212 211 192 225 153 198 210 172 162 164 174 170 200 173 187 158 252 338 179 89 132 193 309 238 243 257 230 221 211 209 209 208
181 184 189 184 187 199 185 198 189 186 184 196 166 195 226 226 238 186 196 177 166 181 174 196 195 198 167 162 185 272 105 87 287 164 295 309 339 254 229 229 218 201 209
185 186 186 187 204 193 188 204 210 199 168 182 165 188 231 283 226 207 203 185 191 184 179 194 227 213 210 200 187 201 175 175 196 202 226 250 231 285 261 223 226 210 213